DW5310 Weather Reports


time (UTC)temp
F
wind
direction
speed
knots
gust
knots
rain 1hr
in
rain 24hr
in
rain mn
in
humidity
%
barometer
mb
20200531071504 50 202 0.0 2.6 0.00 0.29 0.00 98 1014.5
20200531071004 50 180 0.9 2.6 0.00 0.29 0.00 98 1013.5
20200531070504 50 202 1.7 1.7 0.00 0.29 0.00 98 1013.5
20200531070004 50 202 0.0 1.7 0.00 0.29 0.00 98 1013.5
20200531065504 50 202 1.7 2.6 0.00 0.29 0.29 97 1014.5
20200531065005 50 202 1.7 6.1 0.00 0.29 0.29 97 1014.5
20200531064504 50 184 4.3 7.0 0.00 0.29 0.29 97 1014.5
20200531064005 50 198 2.6 6.1 0.00 0.29 0.29 96 1014.5
20200531063504 50 202 1.7 5.2 0.00 0.29 0.29 97 1014.5
20200531063004 50 194 3.5 7.0 0.00 0.29 0.29 96 1014.5
20200531062504 50 187 2.6 5.2 0.00 0.29 0.29 96 1014.5
20200531062005 51 199 2.6 4.3 0.00 0.29 0.29 96 1014.5
20200531061504 50 192 2.6 5.2 0.00 0.29 0.29 96 1014.5
20200531061004 50 180 1.7 5.2 0.00 0.29 0.29 96 1014.5
20200531060504 50 182 1.7 4.3 0.00 0.29 0.29 96 1014.5
20200531060004 50 202 0.9 4.3 0.00 0.29 0.29 96 1014.5
20200531055504 50 181 2.6 5.2 0.00 0.29 0.29 96 1014.5
20200531055005 50 182 1.7 4.3 0.00 0.29 0.29 96 1014.5
20200531054504 50 180 1.7 4.3 0.00 0.29 0.29 96 1014.5
20200531054004 50 202 3.5 5.2 0.00 0.29 0.29 95 1014.5
20200531053504 50 197 2.6 5.2 0.00 0.29 0.29 95 1014.5
20200531053004 50 197 2.6 5.2 0.00 0.29 0.29 94 1014.5
20200531052504 50 180 2.6 5.2 0.00 0.29 0.29 94 1014.5
20200531052005 50 202 0.9 1.7 0.00 0.29 0.29 95 1014.5
20200531051505 50 180 0.9 1.7 0.00 0.29 0.29 95 1014.5
20200531051005 50 202 0.9 1.7 0.00 0.29 0.29 95 1014.5
20200531050504 50 202 0.9 2.6 0.00 0.29 0.29 95 1014.5
20200531050004 50 202 0.9 1.7 0.00 0.29 0.29 95 1014.5
20200531045504 50 202 0.9 2.6 0.00 0.29 0.29 95 1014.5
20200531045005 50 202 0.9 2.6 0.00 0.29 0.29 95 1014.5
20200531044504 50 202 0.9 6.1 0.00 0.29 0.29 95 1014.5
20200531044005 51 180 0.9 1.7 0.00 0.29 0.29 95 1014.5
20200531043504 51 202 1.7 4.3 0.00 0.29 0.29 95 1014.5
20200531043005 51 202 0.9 2.6 0.00 0.29 0.29 95 1014.5
20200531042504 51 202 1.7 2.6 0.00 0.29 0.29 95 1014.5
20200531042005 51 193 1.7 4.3 0.00 0.29 0.29 95 1014.5
20200531041504 51 202 0.9 2.6 0.00 0.29 0.29 95 1014.5
20200531041004 51 202 0.9 1.7 0.00 0.29 0.29 95 1014.5
20200531040505 51 189 2.6 7.0 0.00 0.29 0.29 94 1014.5
20200531040004 51 180 2.6 5.2 0.00 0.29 0.29 94 1014.5
20200531035504 52 202 0.9 4.3 0.00 0.29 0.29 95 1014.5
20200531035004 52 193 0.9 2.6 0.00 0.29 0.29 95 1014.5
20200531034504 52 202 0.9 1.7 0.00 0.29 0.29 94 1014.5
20200531034005 52 197 1.7 4.3 0.00 0.29 0.29 94 1014.5
20200531033505 52 183 1.7 4.3 0.00 0.29 0.29 94 1014.5
20200531033004 52 201 1.7 2.6 0.00 0.29 0.29 94 1014.5
20200531032504 52 202 2.6 5.2 0.00 0.29 0.29 94 1014.5
20200531032004 52 194 0.9 4.3 0.00 0.29 0.29 94 1014.5
20200531031504 52 180 1.7 5.2 0.00 0.29 0.29 94 1014.5
20200531031005 52 187 1.7 6.1 0.00 0.29 0.29 94 1014.5
20200531030504 52 158 1.7 4.3 0.00 0.29 0.29 95 1014.5
20200531030005 52 248 0.9 1.7 0.00 0.29 0.29 95 1014.5
20200531025504 52 202 0.9 2.6 0.00 0.29 0.29 94 1014.5
20200531025004 52 202 2.6 4.3 0.00 0.29 0.29 94 1014.5
20200531024504 52 202 2.6 5.2 0.00 0.29 0.29 93 1014.5
20200531024005 53 190 1.7 5.2 0.00 0.29 0.29 94 1014.5
20200531023504 53 180 1.7 2.6 0.00 0.29 0.29 94 1014.5
20200531023004 53 198 1.7 4.3 0.00 0.29 0.29 93 1014.5
20200531022504 53 202 0.9 1.7 0.00 0.29 0.29 94 1013.5
20200531022004 53 194 2.6 5.2 0.00 0.29 0.29 93 1013.5
20200531021504 53 202 1.7 6.1 0.00 0.29 0.29 93 1013.5
20200531021004 53 181 1.7 5.2 0.00 0.29 0.29 93 1013.5
20200531020504 53 180 0.0 4.3 0.00 0.29 0.29 93 1013.5
20200531020004 53 193 0.0 5.2 0.00 0.29 0.29 93 1013.5
20200531015503 53 180 1.7 5.2 0.00 0.29 0.29 93 1013.5
20200531015005 53 195 1.7 5.2 0.00 0.29 0.29 92 1013.5
20200531014504 53 191 2.6 5.2 0.00 0.29 0.29 91 1013.5
20200531014005 53 180 2.6 4.3 0.00 0.29 0.29 91 1013.5
20200531013504 53 180 2.6 4.3 0.00 0.29 0.29 90 1013.5
20200531013004 53 180 0.9 1.7 0.00 0.29 0.29 91 1013.5
20200531012504 53 180 1.7 2.6 0.00 0.29 0.29 90 1012.5
20200531012005 53 191 2.6 4.3 0.00 0.29 0.29 89 1012.5
20200531011504 52 180 2.6 4.3 0.00 0.29 0.29 88 1012.5
20200531011004 52 22 0.0 0.0 0.00 0.29 0.29 92 1012.5
20200531010504 52 22 0.0 0.0 0.00 0.29 0.29 92 1012.5
20200531010004 52 22 0.0 0.0 0.00 0.29 0.29 92 1012.5
20200531005504 52 22 0.9 0.9 0.00 0.29 0.29 92 1013.5
20200531005004 52 22 0.0 0.9 0.00 0.29 0.29 92 1013.5
20200531004504 53 22 0.0 0.9 0.00 0.29 0.29 92 1013.5
20200531004004 53 22 0.0 0.9 0.00 0.29 0.29 92 1012.5
20200531003504 52 22 0.9 0.9 0.00 0.29 0.29 92 1012.5
20200531003004 52 22 0.9 0.9 0.00 0.29 0.29 91 1012.5
20200531002503 53 22 0.9 1.7 0.00 0.29 0.29 91 1012.5
20200531002005 53 355 0.9 0.9 0.00 0.29 0.29 92 1012.5
20200531001504 53 287 0.9 1.7 0.04 0.29 0.29 92 1012.5
20200531001004 53 202 0.0 0.9 0.04 0.29 0.29 91 1013.5
20200531000504 53 202 0.0 0.9 0.04 0.29 0.29 91 1013.5
20200531000003 53 202 0.0 1.7 0.08 0.29 0.29 90 1013.5
20200530235504 52 202 0.0 0.9 0.13 0.29 0.29 91 1013.5
20200530235004 52 202 0.9 0.9 0.13 0.29 0.29 91 1013.5
20200530234504 52 180 0.0 0.0 0.17 0.29 0.29 91 1013.5
20200530234004 52 180 0.0 1.7 0.17 0.29 0.29 90 1013.5
20200530233504 52 180 0.0 0.0 0.21 0.29 0.29 90 1013.5
20200530233004 51 180 0.9 1.7 0.21 0.29 0.29 88 1013.5
20200530232504 51 102 1.7 1.7 0.21 0.29 0.29 88 1011.5
20200530232004 51 191 1.7 4.3 0.25 0.29 0.29 89 1011.5
20200530231504 51 324 3.5 7.0 0.21 0.25 0.25 94 1011.5
20200530231004 52 325 2.6 5.2 0.21 0.25 0.25 94 1013.5
20200530230504 52 326 2.6 6.1 0.21 0.25 0.25 93 1013.5
20200530230004 53 341 1.7 6.1 0.17 0.21 0.21 93 1013.5
20200530225504 53 295 1.7 2.6 0.13 0.17 0.17 92 1014.5
20200530225005 53 67 1.7 5.2 0.13 0.17 0.17 91 1014.5
20200530224505 53 157 2.6 7.8 0.08 0.13 0.13 90 1014.5
20200530224005 54 194 4.3 8.7 0.08 0.13 0.13 89 1013.5
20200530223504 54 194 4.3 11.3 0.05 0.09 0.09 88 1013.5
20200530223004 54 181 5.2 10.4 0.05 0.09 0.09 85 1013.5
20200530222504 55 198 2.6 7.0 0.05 0.09 0.09 83 1013.5
20200530222005 55 174 4.3 7.0 0.00 0.04 0.04 82 1013.5
20200530221504 55 196 6.1 8.7 0.00 0.04 0.04 82 1013.5
20200530221005 55 196 3.5 5.2 0.00 0.04 0.04 75 1011.5
20200530220504 56 202 1.7 5.2 0.00 0.04 0.04 75 1011.5
20200530220004 56 183 2.6 7.0 0.00 0.04 0.04 74 1011.5
20200530215504 56 179 2.6 6.1 0.00 0.04 0.04 72 1012.5
20200530215005 57 184 2.6 7.0 0.00 0.04 0.04 72 1012.5
20200530214504 57 184 4.3 7.8 0.00 0.04 0.04 72 1012.5
20200530214004 57 185 2.6 6.1 0.00 0.04 0.04 71 1010.5
20200530213504 58 202 0.9 1.7 0.00 0.04 0.04 71 1010.5
20200530213004 58 202 0.9 4.3 0.00 0.04 0.04 69 1010.5
20200530212504 58 206 0.9 4.3 0.00 0.04 0.04 66 1010.5
20200530212005 59 211 0.9 1.7 0.00 0.04 0.04 63 1010.5
20200530211503 59 187 1.7 2.6 0.00 0.04 0.04 62 1010.5
20200530211004 59 251 0.9 1.7 0.00 0.04 0.04 62 1010.5
20200530210504 60 208 1.7 4.3 0.00 0.04 0.04 61 1010.5
20200530210003 60 202 1.7 2.6 0.00 0.04 0.04 61 1010.5
20200530205504 60 189 2.6 10.4 0.00 0.04 0.04 61 1010.5
20200530205004 60 185 1.7 10.4 0.00 0.04 0.04 62 1010.5
20200530204504 61 189 0.9 2.6 0.00 0.04 0.04 63 1010.5
20200530204005 60 202 1.7 5.2 0.00 0.04 0.04 62 1010.5
20200530203504 61 199 1.7 4.3 0.00 0.04 0.04 63 1010.5
20200530203005 60 180 0.9 2.6 0.00 0.04 0.04 63 1010.5
20200530202504 60 289 1.7 5.2 0.00 0.04 0.04 63 1010.5
20200530202004 60 225 1.7 5.2 0.00 0.04 0.04 63 1010.5
20200530201504 60 202 0.0 2.6 0.00 0.04 0.04 64 1010.5
20200530201004 61 330 0.9 2.6 0.00 0.04 0.04 64 1010.5
20200530200504 61 182 1.7 2.6 0.00 0.04 0.04 63 1010.5
20200530200004 61 180 0.9 1.7 0.00 0.04 0.04 62 1010.5
20200530195504 61 185 0.9 2.6 0.00 0.04 0.04 61 1010.5
20200530195004 61 180 2.6 7.0 0.00 0.04 0.04 61 1010.5
20200530194504 61 180 6.1 8.7 0.00 0.04 0.04 60 1010.5
20200530194004 62 195 1.7 5.2 0.00 0.04 0.04 63 1009.5
20200530193504 62 261 0.0 1.7 0.00 0.04 0.04 64 1009.5
20200530193005 62 321 2.6 5.2 0.00 0.04 0.04 64 1009.5
20200530192504 62 228 1.7 5.2 0.00 0.04 0.04 64 1010.5
20200530192004 62 183 5.2 8.7 0.00 0.04 0.04 64 1010.5
20200530191503 62 187 1.7 7.0 0.00 0.04 0.04 68 1010.5
20200530191005 61 185 2.6 7.8 0.00 0.04 0.04 68 1009.5
20200530190504 60 213 2.6 6.1 0.00 0.04 0.04 69 1009.5
20200530190004 60 201 1.7 4.3 0.00 0.04 0.04 68 1009.5
20200530185503 60 255 0.9 1.7 0.00 0.04 0.04 70 1010.5
20200530185005 60 202 0.9 2.6 0.00 0.04 0.04 70 1010.5
20200530184505 60 212 0.9 2.6 0.00 0.04 0.04 70 1010.5
20200530184007 59 189 1.7 4.3 0.00 0.04 0.04 69 1009.5
20200530183506 60 204 4.3 7.0 0.00 0.04 0.04 70 1009.5
20200530183007 59 178 4.3 7.8 0.00 0.04 0.04 69 1009.5
20200530182505 59 339 3.5 7.0 0.00 0.04 0.04 69 1009.5
20200530182006 58 133 1.7 4.3 0.00 0.04 0.04 71 1009.5
20200530181506 58 202 0.9 2.6 0.00 0.04 0.04 72 1009.5
20200530181006 57 48 0.9 2.6 0.00 0.04 0.04 73 1008.5
20200530180506 57 42 1.7 2.6 0.00 0.04 0.04 74 1008.5
20200530180006 56 170 1.7 4.3 0.00 0.04 0.04 74 1008.5
20200530175505 56 12 0.9 2.6 0.00 0.04 0.04 75 1009.5
20200530175006 56 318 0.9 1.7 0.00 0.04 0.04 75 1009.5
20200530174505 56 304 0.9 1.7 0.00 0.04 0.04 75 1009.5
20200530174006 56 255 1.7 5.2 0.00 0.04 0.04 76 1009.5
20200530173505 56 285 1.7 2.6 0.00 0.04 0.04 75 1009.5
20200530173006 56 315 0.9 1.7 0.00 0.04 0.04 76 1009.5
20200530172505 55 323 1.7 4.3 0.00 0.04 0.04 76 1008.5
20200530172006 56 149 0.9 4.3 0.00 0.04 0.04 74 1008.5
20200530171506 55 338 1.7 7.0 0.00 0.04 0.04 77 1008.5
20200530171006 56 318 1.7 2.6 0.00 0.04 0.04 75 1007.5
20200530170506 56 22 0.9 2.6 0.00 0.04 0.04 77 1007.5
20200530170005 56 344 1.7 2.6 0.00 0.04 0.04 76 1007.5
20200530165506 56 60 1.7 2.6 0.00 0.04 0.04 77 1007.5
20200530165006 56 4 0.9 4.3 0.00 0.04 0.04 78 1007.5
20200530164505 56 335 2.6 4.3 0.00 0.04 0.04 77 1007.5
20200530164006 56 339 1.7 2.6 0.00 0.04 0.04 77 1008.5
20200530163506 56 333 1.7 4.3 0.00 0.04 0.04 77 1008.5
20200530163006 56 302 1.7 2.6 0.00 0.04 0.04 78 1008.5
20200530162505 56 248 1.7 4.3 0.00 0.04 0.04 77 1008.5
20200530162006 56 339 1.7 4.3 0.00 0.04 0.04 79 1008.5
20200530161506 56 347 2.6 5.2 0.00 0.04 0.04 79 1008.5
20200530161005 55 2 1.7 4.3 0.00 0.04 0.04 80 1008.5
20200530160506 55 327 1.7 2.6 0.00 0.04 0.04 81 1008.5
20200530160005 55 22 2.6 5.2 0.00 0.04 0.04 82 1008.5
20200530155505 55 0 0.9 2.6 0.00 0.04 0.04 82 1009.5
20200530155006 54 20 1.7 1.7 0.00 0.04 0.04 83 1009.5
20200530154505 54 150 1.7 1.7 0.00 0.04 0.04 81 1009.5
20200530154006 53 329 0.0 1.7 0.00 0.04 0.04 84 1009.5
20200530153505 53 180 0.0 1.7 0.00 0.04 0.04 82 1009.5
20200530153006 53 202 0.9 1.7 0.00 0.04 0.04 83 1009.5
20200530152506 53 336 0.0 1.7 0.00 0.04 0.04 84 1009.5
20200530152006 53 22 0.9 1.7 0.00 0.04 0.04 83 1009.5
20200530151505 53 12 0.9 4.3 0.00 0.04 0.04 82 1009.5
20200530151006 53 63 0.9 1.7 0.00 0.04 0.04 84 1009.5
20200530150505 53 22 0.9 1.7 0.00 0.04 0.04 85 1009.5
20200530150006 53 22 0.9 1.7 0.00 0.04 0.04 85 1009.5
20200530145505 52 0 0.0 0.9 0.00 0.04 0.04 85 1009.5
20200530145006 52 341 0.9 1.7 0.00 0.04 0.04 84 1009.5
20200530144506 52 71 1.7 2.6 0.00 0.04 0.04 82 1009.5
20200530144006 52 51 1.7 2.6 0.00 0.04 0.04 84 1009.5
20200530143506 52 72 0.9 4.3 0.00 0.04 0.04 84 1009.5
20200530143006 52 108 1.7 2.6 0.00 0.04 0.04 83 1009.5
20200530142505 51 22 0.9 1.7 0.04 0.04 0.04 85 1009.5
20200530142006 51 68 0.9 1.7 0.04 0.04 0.04 84 1009.5
20200530141505 51 30 0.9 2.6 0.04 0.04 0.04 84 1009.5
20200530141006 51 103 2.6 5.2 0.04 0.04 0.04 82 1007.5
20200530140506 51 137 3.5 5.2 0.04 0.04 0.04 77 1007.5
20200530140005 51 22 1.7 2.6 0.04 0.04 0.04 85 1007.5
20200530135506 51 0 1.7 2.6 0.04 0.04 0.04 85 1010.5
20200530135006 51 0 1.7 2.6 0.04 0.04 0.04 84 1010.5
20200530134506 51 0 2.6 2.6 0.04 0.04 0.04 84 1010.5
20200530134006 52 135 0.9 0.9 0.04 0.04 0.04 80 1010.5
20200530133505 52 171 0.0 2.6 0.04 0.04 0.04 78 1010.5
20200530133006 52 180 1.7 4.3 0.04 0.04 0.04 74 1010.5
20200530132505 52 315 1.7 1.7 0.00 0.00 0.00 82 1010.5
20200530132006 53 329 0.0 0.9 0.00 0.00 0.00 75 1010.5
20200530131505 53 336 0.9 1.7 0.00 0.00 0.00 73 1010.5
20200530131006 54 258 0.0 0.9 0.00 0.00 0.00 69 1010.5
20200530130505 54 203 2.6 7.0 0.00 0.00 0.00 69 1010.5
20200530130005 53 176 4.3 7.0 0.00 0.00 0.00 68 1010.5
20200530125506 53 186 1.7 4.3 0.00 0.00 0.00 67 1009.5
20200530125006 53 333 0.0 0.0 0.00 0.00 0.00 67 1009.5
20200530124505 53 338 0.9 0.9 0.00 0.00 0.00 67 1009.5
20200530124006 53 338 0.0 0.9 0.00 0.00 0.00 67 1009.5
20200530123505 53 338 0.0 1.7 0.00 0.00 0.00 67 1009.5
20200530123006 53 338 0.9 1.7 0.00 0.00 0.00 68 1009.5
20200530122505 53 45 0.9 1.7 0.00 0.00 0.00 66 1009.5
20200530122006 53 45 0.9 0.9 0.00 0.00 0.00 65 1009.5
20200530121506 53 45 0.0 0.0 0.00 0.00 0.00 65 1009.5
20200530121006 54 45 0.0 0.9 0.00 0.00 0.00 64 1009.5
20200530120506 54 45 0.0 1.7 0.00 0.00 0.00 64 1009.5
20200530120006 54 22 0.0 0.9 0.00 0.00 0.00 63 1009.5
20200530115505 54 22 0.0 0.9 0.00 0.00 0.00 64 1009.5
20200530115006 54 23 0.9 2.6 0.00 0.00 0.00 63 1009.5
20200530114505 54 22 0.0 1.7 0.00 0.00 0.00 63 1009.5
20200530114006 54 22 0.9 1.7 0.00 0.00 0.00 64 1009.5
20200530113506 54 48 0.9 1.7 0.00 0.00 0.00 63 1009.5
20200530113006 54 27 0.9 2.6 0.00 0.00 0.00 62 1009.5
20200530112505 55 276 0.9 1.7 0.00 0.00 0.00 63 1009.5
20200530112006 55 90 0.9 1.7 0.00 0.00 0.00 62 1009.5
20200530111505 55 112 0.9 1.7 0.00 0.00 0.00 62 1009.5
20200530111006 55 4 1.7 2.6 0.00 0.00 0.00 63 1009.5
20200530110505 55 330 1.7 2.6 0.00 0.00 0.00 61 1009.5
20200530110006 55 12 0.9 1.7 0.00 0.00 0.00 61 1009.5
20200530105505 55 338 0.0 1.7 0.00 0.00 0.00 60 1008.5
20200530105006 55 37 0.9 2.6 0.00 0.00 0.00 61 1008.5
20200530104506 55 344 0.9 4.3 0.00 0.00 0.00 59 1008.5
20200530104006 55 358 0.9 1.7 0.00 0.00 0.00 60 1008.5
20200530103505 55 289 0.0 1.7 0.00 0.00 0.00 59 1008.5
20200530103006 56 22 0.9 1.7 0.00 0.00 0.00 58 1008.5
20200530102506 56 338 0.9 1.7 0.00 0.00 0.00 59 1008.5
20200530102006 56 90 0.9 1.7 0.00 0.00 0.00 57 1008.5
20200530101505 56 326 0.9 1.7 0.00 0.00 0.00 58 1008.5
20200530101006 56 345 0.9 4.3 0.00 0.00 0.00 56 1008.5
20200530100505 56 172 0.9 1.7 0.00 0.00 0.00 56 1008.5
20200530100005 56 90 0.9 1.7 0.00 0.00 0.00 55 1008.5
20200530095505 56 106 0.9 1.7 0.00 0.00 0.00 55 1008.5
20200530095005 56 22 0.9 4.3 0.00 0.00 0.00 56 1008.5
20200530094506 57 325 0.9 2.6 0.00 0.00 0.00 55 1008.5
20200530094006 57 10 1.7 4.3 0.00 0.00 0.00 55 1008.5
20200530093505 57 315 1.7 2.6 0.00 0.00 0.00 54 1008.5
20200530093006 57 340 0.9 1.7 0.00 0.00 0.00 54 1008.5
20200530092506 57 338 0.9 1.7 0.00 0.00 0.00 54 1008.5
20200530092006 57 340 1.7 1.7 0.00 0.00 0.00 54 1008.5
20200530091505 57 270 0.9 2.6 0.00 0.00 0.00 53 1008.5
20200530091006 57 346 0.9 1.7 0.00 0.00 0.00 53 1008.5
20200530090505 57 252 0.9 1.7 0.00 0.00 0.00 53 1008.5
20200530090005 57 353 1.7 4.3 0.00 0.00 0.00 53 1008.5
20200530085505 57 332 1.7 4.3 0.00 0.00 0.00 53 1008.5
20200530085006 57 338 0.9 2.6 0.00 0.00 0.00 52 1008.5
20200530084506 58 22 0.9 2.6 0.00 0.00 0.00 52 1008.5
20200530084006 58 323 0.9 1.7 0.00 0.00 0.00 52 1009.5
20200530083505 58 14 0.9 5.2 0.00 0.00 0.00 52 1009.5
20200530083005 58 338 1.7 2.6 0.00 0.00 0.00 52 1009.5
20200530082505 58 294 1.7 4.3 0.00 0.00 0.00 52 1009.5
20200530082005 58 338 0.9 2.6 0.00 0.00 0.00 52 1009.5
20200530081505 58 22 0.0 1.7 0.00 0.00 0.00 51 1009.5
20200530081006 58 338 0.9 2.6 0.00 0.00 0.00 51 1009.5
20200530080505 58 63 0.9 1.7 0.00 0.00 0.00 51 1009.5
20200530080005 58 359 0.9 1.7 0.00 0.00 0.00 51 1009.5
20200530075504 58 0 0.9 1.7 0.00 0.00 0.00 51 1009.5
20200530075006 59 25 0.9 1.7 0.00 0.00 0.00 51 1009.5
20200530074505 59 350 1.7 4.3 0.00 0.00 0.00 51 1009.5
20200530074006 59 340 0.9 7.0 0.00 0.00 0.00 51 1009.5
20200530073504 59 51 2.6 6.1 0.00 0.00 0.00 51 1009.5
20200530073006 59 341 2.6 6.1 0.00 0.00 0.00 51 1009.5
20200530072505 60 329 1.7 5.2 0.00 0.00 0.00 51 1009.5
20200530072006 60 338 1.7 7.0 0.00 0.00 0.00 51 1009.5